Regional Weather Roundup
Issued by NWS Sioux Falls, SD

Home | Current Version | Previous Version | Text Only | Print | Product List | Glossary Off
Versions: 1 2 3 4 5 6 7 8 9 10 11 12 13 14 15 16 17 18 19 20 21 22 23 24 25 26 27 28 29 30 31 32 33 34 35 36 37 38 39 40 41 42 43 44 45 46 47 48 49 50

000
ASUS43 KFSD 021402
RWRFSD

WEATHER ROUNDUP FOR SE SOUTH DAKOTA/SW MINNESOTA/NW IOWA
NATIONAL WEATHER SERVICE SIOUX FALLS SD
900 AM CDT SUN AUG 02 2015

NOTE: "FAIR" INDICATES FEW OR NO CLOUDS BELOW 12,000 FEET WITH NO
SIGNIFICANT WEATHER AND OR OBSTRUCTIONS TO VISIBILITY.


SDZ038>040-050-052>070-021500-
SOUTHEAST SOUTH DAKOTA

CITY           SKY/WX    TMP DP  RH WIND       PRES   REMARKS
BROOKINGS      SUNNY     73  63  68 NW9       29.77R
CHAMBERLAIN    NOT AVBL
HURON          SUNNY     72  61  68 NW14      29.77R
MADISON        FAIR      68  64  88 W6        29.77S
MITCHELL       SUNNY     72  64  76 SW6       29.77S
SIOUX FALLS    MOSUNNY   73  64  73 VRB5      29.77S
WINNER         FAIR      76  59  55 W9        29.85R
YANKTON        SUNNY     73  63  68 CALM      29.79S
$$

MNZ071-072-080-081-089-090-097-098-021500-
SOUTHWEST MINNESOTA

CITY           SKY/WX    TMP DP  RH WIND       PRES   REMARKS
FAIRMONT       SUNNY     75  64  69 SW16      29.73F
JACKSON        SUNNY     75  68  78 SW17      29.76S
LUVERNE        MOSUNNY   72  64  78 SW8       29.78F
MARSHALL       SUNNY     79  57  47 W17       29.71R
MONTEVIDEO     SUNNY     79  63  57 NW12G22   29.69R
PIPESTONE      MOSUNNY   70  64  83 SW7       29.76S
REDWOOD FALLS  SUNNY     77  62  59 W14       29.67R
TRACY          SUNNY     77  63  61 W12G18    29.70S
WINDOM         SUNNY     75  64  69 SW13G18   29.73F
WORTHINGTON    SUNNY     73  63  68 SW16      29.77R
$$

IAZ001>003-012>014-020>022-031-032-NEZ013-014-SDZ071-021500-
NORTHWEST IOWA

CITY           SKY/WX    TMP DP  RH WIND       PRES   REMARKS
CHEROKEE       SUNNY     75  70  85 SW7       29.80F
DENISON        SUNNY     77  72  83 SW13      29.81S
ESTHERVILLE    SUNNY     75  68  78 SW12G23   29.76S
LE MARS        SUNNY     73  70  88 SW8       29.81R
ORANGE CITY    SUNNY     72  68  88 SW8       29.81R
SHELDON        SUNNY     75  70  83 SW8G15    29.78S
SIOUX CITY     SUNNY     75  67  76 SW8       29.81S
SPENCER        SUNNY     77  67  71 SW13      29.79R
STORM LAKE     SUNNY     75  68  78 SW15      29.82R
$$

ABBREVIATIONS USED IN REMARKS
   TC - TEMPERATURE IN CELSIUS
  WCI - WIND CHILL INDEX
   HX - HEAT INDEX
  VSB - VISIBILITY



USA.gov is the U.S. government's official web portal to all federal, state and local government web resources and services.